When you browse on this site, cookies collect data to enhance your experience and personalize the content and advertising you see.
Visit our Privacy Policy to learn more. By continuing to use the site, you agree to this use of cookies and data.
  • In Germany
  • List of Countries
  • For 7 days
  • Water Temperature
  • Satellite Maps
  • Weather Map
  • Weather Widgets
  • user-avatar
    Login

    Hourly Weather Robertsport

    Today, 19 December, Wednesday

    Time Temperature Precipitation Wind Pressure Humidity
    00:00 +26°C° 0 mm 2 mps 756 mmHg 92%
    01:00 +26°C° 0 mm 2 mps 756 mmHg 93%
    02:00 +26°C° 0 mm 2 mps 756 mmHg 93%
    03:00 +26°C° 0 mm 2 mps 756 mmHg 94%
    04:00 +25°C° 0 mm 2 mps 756 mmHg 94%
    05:00 +25°C° 0 mm 2 mps 756 mmHg 95%
    06:00 +26°C° 0 mm 2 mps 756 mmHg 89%
    07:00 +28°C° 0 mm 2 mps 757 mmHg 82%
    08:00 +29°C° 0 mm 2 mps 757 mmHg 76%
    09:00 +31°C° 0 mm 2 mps 757 mmHg 67%
    10:00 +34°C° 0 mm 2 mps 757 mmHg 58%
    11:00 +36°C° 0 mm 2 mps 756 mmHg 49%
    12:00 +37°C° 0 mm 2 mps 756 mmHg 46%
    13:00 +37°C° 0 mm 2 mps 755 mmHg 44%
    14:00 +38°C° 0 mm 3 mps 754 mmHg 41%
    15:00 +36°C° 0.6 mm 3 mps 754 mmHg 52%
    16:00 +33°C° 0.6 mm 3 mps 754 mmHg 62%
    17:00 +30°C° 0.6 mm 3 mps 754 mmHg 72%
    18:00 +29°C° 0.1 mm 3 mps 755 mmHg 77%
    19:00 +28°C° 0.1 mm 3 mps 755 mmHg 81%
    20:00 +27°C° 0.1 mm 3 mps 756 mmHg 86%
    21:00 +27°C° 0 mm 3 mps 756 mmHg 87%
    22:00 +27°C° 0 mm 2 mps 756 mmHg 88%
    23:00 +27°C° 0 mm 2 mps 756 mmHg 89%

    Tomorrow, 20 December, Thursday

    Time Temperature Precipitation Wind Pressure Humidity
    00:00 +27°C° 0.1 mm 2 mps 756 mmHg 90%
    01:00 +26°C° 0.1 mm 2 mps 756 mmHg 91%
    02:00 +26°C° 0.1 mm 1 mps 755 mmHg 92%
    03:00 +26°C° 0 mm 1 mps 755 mmHg 92%
    04:00 +26°C° 0 mm 1 mps 755 mmHg 93%
    05:00 +26°C° 0 mm 1 mps 755 mmHg 94%
    06:00 +27°C° 0 mm 1 mps 756 mmHg 88%
    07:00 +28°C° 0 mm 1 mps 756 mmHg 82%
    08:00 +30°C° 0 mm 1 mps 757 mmHg 76%
    09:00 +31°C° 0 mm 1 mps 757 mmHg 70%
    10:00 +32°C° 0 mm 1 mps 757 mmHg 63%
    11:00 +34°C° 0 mm 1 mps 756 mmHg 56%
    12:00 +35°C° 0 mm 2 mps 756 mmHg 54%
    13:00 +35°C° 0 mm 2 mps 755 mmHg 52%
    14:00 +36°C° 0 mm 2 mps 754 mmHg 50%
    15:00 +35°C° 0.1 mm 3 mps 754 mmHg 57%
    16:00 +33°C° 0.1 mm 3 mps 754 mmHg 63%
    17:00 +31°C° 0.1 mm 3 mps 754 mmHg 70%
    18:00 +30°C° 0 mm 3 mps 755 mmHg 75%
    19:00 +29°C° 0 mm 3 mps 755 mmHg 81%
    20:00 +28°C° 0 mm 3 mps 756 mmHg 86%
    21:00 +27°C° 0 mm 2 mps 756 mmHg 87%
    22:00 +27°C° 0 mm 2 mps 756 mmHg 88%
    23:00 +27°C° 0 mm 2 mps 756 mmHg 89%

    Day after tomorrow, 21 December, Friday

    Time Temperature Precipitation Wind Pressure Humidity
    00:00 +27°C° 0 mm 2 mps 755 mmHg 90%
    01:00 +27°C° 0 mm 1 mps 755 mmHg 91%
    02:00 +26°C° 0 mm 1 mps 755 mmHg 92%
    03:00 +26°C° 0 mm 1 mps 755 mmHg 92%
    04:00 +26°C° 0 mm 1 mps 755 mmHg 92%
    05:00 +27°C° 0 mm 1 mps 755 mmHg 92%
    06:00 +27°C° 0.1 mm 1 mps 756 mmHg 88%
    07:00 +26°C° 0.1 mm 0 mps 756 mmHg 84%
    08:00 +27°C° 0.1 mm 0 mps 757 mmHg 80%
    09:00 +31°C° 0.1 mm 1 mps 757 mmHg 73%
    10:00 +32°C° 0.1 mm 1 mps 756 mmHg 65%
    11:00 +34°C° 0.1 mm 1 mps 756 mmHg 58%
    12:00 +34°C° 0.2 mm 1 mps 755 mmHg 57%
    13:00 +35°C° 0.2 mm 2 mps 755 mmHg 56%
    14:00 +36°C° 0.2 mm 2 mps 754 mmHg 55%
    15:00 +34°C° 0.1 mm 2 mps 754 mmHg 61%
    16:00 +32°C° 0.1 mm 2 mps 754 mmHg 67%
    17:00 +31°C° 0.1 mm 3 mps 754 mmHg 73%
    18:00 +29°C° 0 mm 3 mps 754 mmHg 78%
    19:00 +28°C° 0 mm 3 mps 755 mmHg 84%
    20:00 +27°C° 0 mm 3 mps 756 mmHg 89%
    21:00 +27°C° 0 mm 2 mps 756 mmHg 90%
    22:00 +27°C° 0 mm 2 mps 755 mmHg 90%
    23:00 +27°C° 0 mm 2 mps 755 mmHg 91%

    22 December, Saturday

    Time Temperature Precipitation Wind Pressure Humidity
    00:00 +27°C° 0 mm 2 mps 755 mmHg 91%
    01:00 +27°C° 0 mm 2 mps 755 mmHg 92%
    02:00 +27°C° 0 mm 1 mps 754 mmHg 92%
    03:00 +27°C° 0.1 mm 1 mps 754 mmHg 91%
    04:00 +27°C° 0.1 mm 1 mps 755 mmHg 90%
    05:00 +27°C° 0.1 mm 1 mps 755 mmHg 90%
    06:00 +28°C° 0.2 mm 1 mps 755 mmHg 85%
    07:00 +29°C° 0.2 mm 1 mps 756 mmHg 81%
    08:00 +30°C° 0.2 mm 1 mps 756 mmHg 77%
    09:00 +32°C° 0.2 mm 1 mps 756 mmHg 68%
    10:00 +34°C° 0.2 mm 1 mps 756 mmHg 59%
    11:00 +36°C° 0.2 mm 1 mps 755 mmHg 49%
    12:00 +36°C° 0.1 mm 2 mps 755 mmHg 51%
    13:00 +36°C° 0.1 mm 2 mps 754 mmHg 52%
    14:00 +35°C° 0.1 mm 3 mps 753 mmHg 53%
    15:00 +34°C° 0.2 mm 3 mps 753 mmHg 61%
    16:00 +31°C° 0.2 mm 3 mps 753 mmHg 69%
    17:00 +30°C° 0.2 mm 3 mps 753 mmHg 77%
    18:00 +29°C° 0 mm 3 mps 754 mmHg 81%
    19:00 +28°C° 0 mm 3 mps 754 mmHg 84%
    20:00 +27°C° 0 mm 3 mps 755 mmHg 88%
    21:00 +27°C° 0 mm 3 mps 755 mmHg 89%
    22:00 +27°C° 0 mm 2 mps 755 mmHg 89%
    23:00 +27°C° 0 mm 2 mps 755 mmHg 90%

    23 December, Sunday

    Time Temperature Precipitation Wind Pressure Humidity
    00:00 +27°C° 0 mm 2 mps 754 mmHg 90%
    01:00 +27°C° 0 mm 2 mps 754 mmHg 90%
    02:00 +27°C° 0 mm 2 mps 754 mmHg 91%
    03:00 +27°C° 0.1 mm 2 mps 754 mmHg 90%
    04:00 +27°C° 0.1 mm 2 mps 754 mmHg 90%
    05:00 +27°C° 0.1 mm 2 mps 754 mmHg 90%
    06:00 +28°C° 0.2 mm 1 mps 755 mmHg 86%
    07:00 +29°C° 0.2 mm 1 mps 755 mmHg 82%
    08:00 +29°C° 0.2 mm 1 mps 756 mmHg 78%
    09:00 +32°C° 0.1 mm 1 mps 756 mmHg 68%
    10:00 +34°C° 0.1 mm 1 mps 755 mmHg 57%
    11:00 +36°C° 0.1 mm 1 mps 755 mmHg 47%
    12:00 +37°C° 0.1 mm 2 mps 754 mmHg 45%
    13:00 +37°C° 0.1 mm 2 mps 753 mmHg 44%
    14:00 +37°C° 0.1 mm 3 mps 753 mmHg 43%
    15:00 +35°C° 0.1 mm 3 mps 753 mmHg 53%
    16:00 +33°C° 0.1 mm 4 mps 753 mmHg 64%
    17:00 +30°C° 0.1 mm 4 mps 753 mmHg 74%
    18:00 +29°C° 0 mm 4 mps 753 mmHg 78%
    19:00 +28°C° 0 mm 3 mps 754 mmHg 83%
    20:00 +27°C° 0 mm 3 mps 755 mmHg 87%
    21:00 +27°C° 0 mm 3 mps 755 mmHg 88%
    22:00 +27°C° 0 mm 3 mps 755 mmHg 89%
    23:00 +27°C° 0 mm 3 mps 755 mmHg 90%

    24 December, Monday

    Time Temperature Precipitation Wind Pressure Humidity
    00:00 +27°C° 0 mm 2 mps 755 mmHg 91%
    01:00 +27°C° 0 mm 2 mps 754 mmHg 91%
    02:00 +27°C° 0 mm 2 mps 754 mmHg 91%
    03:00 +27°C° 0.1 mm 2 mps 754 mmHg 91%
    04:00 +27°C° 0.1 mm 2 mps 754 mmHg 91%
    05:00 +27°C° 0.1 mm 2 mps 755 mmHg 91%
    06:00 +28°C° 0.2 mm 2 mps 755 mmHg 87%
    07:00 +28°C° 0.2 mm 2 mps 755 mmHg 83%
    08:00 +29°C° 0.2 mm 2 mps 756 mmHg 79%
    09:00 +31°C° 0.2 mm 2 mps 756 mmHg 69%
    10:00 +34°C° 0.2 mm 2 mps 755 mmHg 59%
    11:00 +36°C° 0.2 mm 2 mps 755 mmHg 49%
    12:00 +37°C° 0.1 mm 2 mps 754 mmHg 46%
    13:00 +37°C° 0.1 mm 3 mps 754 mmHg 43%
    14:00 +38°C° 0.1 mm 3 mps 753 mmHg 40%
    15:00 +36°C° 0.1 mm 3 mps 753 mmHg 50%
    16:00 +34°C° 0.1 mm 4 mps 753 mmHg 60%
    17:00 +32°C° 0.1 mm 4 mps 753 mmHg 70%
    18:00 +30°C° 0 mm 4 mps 754 mmHg 76%
    19:00 +29°C° 0 mm 4 mps 754 mmHg 81%
    20:00 +28°C° 0 mm 3 mps 755 mmHg 87%
    21:00 +27°C° 0 mm 3 mps 755 mmHg 88%
    22:00 +27°C° 0 mm 3 mps 755 mmHg 88%
    23:00 +27°C° 0 mm 3 mps 755 mmHg 89%
    Show more